Location: Monfort
(47.1967°N, 0.2115°W)
Time: 02:42:54
(UTC+00:00)

CZ-4C R/B - Pass Details

Date: 24 October 2020
Orbit: 624 x 1378 km, 63.4° (Epoch: 01 December)

Event Time Altitude Azimuth Distance (km) Brightness Sun altitude
Rises 19:28:16 0° 316° (NW) 3,609 6.3 -26.3°
Reaches altitude 10° 19:31:04 10° 328° (NNW) 2,783 5.4 -26.8°
Maximum altitude 19:36:47 29° 27° (NNE) 1,949 3.9 -27.7°
Enters shadow 19:37:17 29° 34° (NNE) 1,973 3.9 -27.8°
